805  
SXUS52 KCHS 291027  
OSOCHS  
 
MARINE OBSERVATIONS  
NATIONAL WEATHER SERVICE CHARLESTON SC  
600 AM EDT WED MAR 29 2017  
   
..DOWNTOWN CHARLESTON AND HARBOR
 
 
 
CITY SKY/WX TMP DP RH WIND PRES REMARKS  
WATERFRONT PRK N/A 65 63 93 N5 29.93R  
   
..LAKE MOULTRIE
 
 
 
CITY SKY/WX TMP DP RH WIND PRES REMARKS  
PINOPOLIS N/A 64 61 88 NE6 29.86R  
   
..LAKE AND SUPPLEMENTAL COASTAL OBSERVATIONS
 
 
 
STATION/POSITION TIME TEMP WIND PRES WAVE SWELL  
AIR SEA DIR/SP/G HT/PER HT/PER/DIR  
(UTC) (F) (DEG/KT/KT) (MB) (FT/S) (FT/S/D)  
FORT PULASKI 1000 66 66 280/ 3/ 4 1014.6  
SAPELO ISLAND 1000 66 300/ 2 1015.0  
WINYAH BAY 0930 64 350/ 6 1013.0S  
LAKE MURRAY 1020 59 CALM 1015.6  
ACE BASIN NERRS 0930 61 CALM 1014.0S  
 
   
..C-MAN AND BUOY OBSERVATIONS
 
 
 
STATION/POSITION TIME TEMP WIND PRES WAVE SWELL  
AIR SEA DIR/SP/G HT/PER HT/PER/DIR  
(UTC) (F) (DEG/KT/KT) (MB) (FT/S) (FT/S/D)  
BUOY 41004 0950 68 71 270/ 14/ 16 1013.2R 5/10 3/120/10  
BUOY 41008 0950 67 65 260/ 6/ 8 1014.2R 3/ 8 3/ 80/ 8  
FOLLY BEACH CMAN 1000 63 310/ 3/ 4 1014.6R  
CAPERS NS BUOY NOT AVBL  
FRIPP NS BUOY 1008 65 63 270/ 6/ 10 1014.0R  
5E ST. MARYS GA 1000 67 N/A 3/10 2/100/11  
 
 
STATION/POSITION TIME TEMP WIND PRES WAVE SWELL  
AIR SEA DIR/SP/G HT/PER HT/PER/DIR  
(UTC) (F) (DEG/KT/KT) (MB) (FT/S) (FT/S/D)  
FRYING PAN BUOY 1010 67 73 360/ 10/ 14 1013.6  
BUOY 41025 0950 64 73 360/ 17/ 21 1013.6R 4/10 3/140/10  
CAPE LOOKOUT NC 1000 64 330/ 5/ 5 1013.6R  
BUOY 41002 0950 71 72 240/ 17/ 21 1013.2F 6/10 5/ 90/10  
BUOY 41010 NOT AVBL  
ST AUGUSTINE FL 1000 63 67 210/ 4/ 6 1016.4R  
 

 
 
 
CLICK HERE TO GO TO PREVIOUS BULLETINS.

The Nexlab SC Page
The Nexlab GA Page Main Text Page